C/2023 V4 ( Camarasa-Duszanowicz )

Japanese version
Home page
Updated on June 9, 2024

---------------------------------------------------------------------

* Profile

Discovery Date November 5, 2023
Magnitude 18.7 mag
Discoverer Jordi Camarasa (Sabadell, Barcelona, Spain), Grzegorz Duszanowicz (Akersberga, Sweden)

* Pictures

* Orbital Elements

Epoch 2024 Mar. 31.0 TT = JDT 2460400.5
T 2024 May 30.36400 TT                                  Rudenko
q   1.1217460            (2000.0)            P               Q
z  -0.0009394      Peri.   50.85194     -0.02253460     -0.53611181
 +/-0.0000077      Node    66.32569     +0.35728881     -0.79263670
e   1.0010537      Incl.   67.12980     +0.93372207     +0.29036388
>From 471 observations 2023 Nov. 5-2024 Apr. 27, mean residual 0".6.

* Finding Charts

* Magnitudes Graph

        m1 = 9.0 + 5 log d + 16.0 log r

---------------------------------------------------------------------

The orbital elements are published on M.P.E.C. 2024-J304.
The charts are made with StellaNavigator Ver.11 (AstroArts).
The magnitudes graphs are made with Comet for Windows.

---------------------------------------------------------------------

Copyright(C) Seiichi Yoshida (comet@aerith.net). All rights reserved.